DW6366 Weather Reports


Display with metric or nautical units.
time (UTC)temp
F
wind
direction
speed
MPH
gust
MPH
rain 1hr
in
rain 24hr
in
rain mn
in
humidity
%
barometer
mb
20260508002336 54 89 0.0 1.0 0.00 0.00 0.00 76 1017.2
20260508001324 54 89 0.0 0.0 0.00 0.00 0.00 76 1017.1
20260508000335 54 89 0.0 1.0 0.00 0.00 0.00 76 1017.1
20260507235337 54 89 1.0 3.0 0.00 0.00 0.00 75 1017.2
20260507234336 55 80 0.0 0.0 0.00 0.00 0.00 75 1017.3
20260507233323 55 80 0.0 0.0 0.00 0.00 0.00 75 1017.3
20260507232340 55 80 0.0 2.0 0.00 0.00 0.00 75 1017.3
20260507231332 55 80 1.0 3.0 0.00 0.00 0.00 74 1017.3
20260507230334 55 78 0.0 1.0 0.00 0.00 0.00 73 1017.3
20260507225346 55 78 0.0 1.0 0.00 0.00 0.00 73 1017.3
20260507224333 55 78 0.0 1.0 0.00 0.00 0.00 73 1017.4
20260507223321 55 78 0.0 0.0 0.00 0.00 0.00 73 1017.4
20260507222338 55 78 0.0 1.0 0.00 0.00 0.00 73 1017.4
20260507221347 56 79 0.0 1.0 0.00 0.00 0.00 73 1017.4
20260507220336 56 79 0.0 0.0 0.00 0.00 0.00 72 1017.4
20260507215333 56 79 0.0 0.0 0.00 0.00 0.00 72 1017.3
20260507214340 56 79 0.0 1.0 0.00 0.00 0.00 72 1017.3
20260507213329 56 79 0.0 1.0 0.00 0.00 0.00 72 1017.2
20260507212335 56 79 0.0 2.0 0.00 0.00 0.00 71 1017.2
20260507211329 56 78 0.0 1.0 0.00 0.00 0.00 71 1017.3
20260507210319 56 80 0.0 2.0 0.00 0.00 0.00 71 1017.3
20260507205337 56 80 0.0 1.0 0.00 0.00 0.00 70 1017.2
20260507204326 57 80 0.0 0.0 0.00 0.00 0.00 69 1017.2
20260507203334 57 80 0.0 3.0 0.00 0.00 0.00 69 1017.1
20260507202331 57 80 0.0 2.0 0.00 0.00 0.00 69 1017.0
20260507201327 57 81 1.0 3.0 0.00 0.00 0.00 68 1016.9
20260507200346 57 69 3.0 5.0 0.00 0.00 0.00 68 1016.8
20260507195339 57 79 2.0 5.0 0.00 0.00 0.00 67 1016.7
20260507194327 57 84 2.0 4.0 0.00 0.00 0.00 66 1016.7
20260507193340 58 72 2.0 5.0 0.00 0.00 0.00 66 1016.6
20260507192352 58 85 2.0 5.0 0.00 0.00 0.00 66 1016.5
20260507191329 58 71 3.0 9.0 0.00 0.00 0.00 65 1016.5
20260507190336 58 89 5.0 6.0 0.00 0.00 0.00 65 1016.5
20260507185320 58 208 1.0 5.0 0.00 0.00 0.00 64 1016.5
20260507184332 58 15 0.0 1.0 0.00 0.00 0.00 61 1016.5
20260507183337 59 15 0.0 1.0 0.00 0.00 0.00 61 1016.4
20260507182348 59 15 0.0 1.0 0.00 0.00 0.00 61 1016.4
20260507181326 59 15 0.0 1.0 0.00 0.00 0.00 60 1016.4
20260507180353 59 15 0.0 2.0 0.00 0.00 0.00 59 1016.4
20260507175334 59 15 0.0 2.0 0.00 0.00 0.00 58 1016.4
20260507174333 59 13 0.0 2.0 0.00 0.00 0.00 58 1016.3
20260507173349 59 13 0.0 3.0 0.00 0.00 0.00 58 1016.3
20260507172336 59 9 0.0 3.0 0.00 0.00 0.00 58 1016.4
20260507171331 60 6 0.0 1.0 0.00 0.00 0.00 58 1016.4
20260507170338 60 5 0.0 3.0 0.00 0.00 0.00 58 1016.4
20260507165334 60 348 1.0 4.0 0.00 0.00 0.00 57 1016.3
20260507164324 60 1 0.0 2.0 0.00 0.00 0.00 58 1016.2
20260507163332 60 17 1.0 3.0 0.00 0.00 0.00 58 1016.2
20260507162346 60 4 1.0 3.0 0.00 0.00 0.00 57 1016.2
20260507161337 60 8 1.0 6.0 0.00 0.00 0.00 56 1016.2
20260507160333 60 21 0.0 4.0 0.00 0.00 0.00 55 1016.2
20260507155331 60 57 1.0 3.0 0.00 0.00 0.00 56 1016.2
20260507154325 61 357 1.0 4.0 0.00 0.00 0.00 56 1016.1
20260507153322 61 80 2.0 8.0 0.00 0.00 0.00 56 1016.1
20260507152358 61 21 1.0 6.0 0.00 0.00 0.00 55 1016.0
20260507151331 62 327 1.0 4.0 0.00 0.00 0.00 53 1016.0
20260507150345 62 349 2.0 9.0 0.00 0.00 0.00 54 1016.0
20260507145339 62 19 1.0 11.0 0.00 0.00 0.00 56 1016.0
20260507144351 62 352 2.0 5.0 0.00 0.00 0.00 56 1016.0
20260507143342 63 2 2.0 5.0 0.00 0.00 0.00 52 1016.0
20260507142343 63 342 1.0 9.0 0.00 0.00 0.00 47 1016.0
20260507141328 63 347 0.0 3.0 0.00 0.00 0.00 47 1016.0
20260507140322 64 86 1.0 8.0 0.00 0.00 0.00 40 1016.1
20260507135328 64 353 0.0 6.0 0.00 0.00 0.00 42 1016.1
20260507134327 64 94 1.0 3.0 0.00 0.00 0.00 43 1016.2
20260507133339 64 48 2.0 6.0 0.00 0.00 0.00 44 1016.2
20260507132331 65 77 6.0 11.0 0.00 0.00 0.00 43 1016.2
20260507131337 68 30 1.0 5.0 0.00 0.00 0.00 41 1016.2
20260507130327 67 95 1.0 12.0 0.00 0.00 0.00 44 1016.2
20260507125339 66 71 5.0 14.0 0.00 0.00 0.00 45 1016.1
20260507124323 65 84 2.0 12.0 0.00 0.00 0.00 46 1016.2
20260507123353 64 92 6.0 11.0 0.00 0.00 0.00 48 1016.1
20260507122328 62 208 5.0 11.0 0.00 0.00 0.00 53 1016.2
20260507121331 62 208 3.0 10.0 0.00 0.00 0.00 51 1016.2
20260507120329 63 91 4.0 9.0 0.00 0.00 0.00 50 1016.2
20260507115334 63 80 6.0 10.0 0.00 0.00 0.00 51 1016.3
20260507114355 66 208 7.0 12.0 0.00 0.00 0.00 44 1016.3
20260507113328 66 104 4.0 10.0 0.00 0.00 0.00 46 1016.3
20260507112320 67 208 4.0 11.0 0.00 0.00 0.00 47 1016.3
20260507111333 66 13 2.0 9.0 0.00 0.00 0.00 48 1016.4
20260507110342 65 46 1.0 12.0 0.00 0.00 0.00 50 1016.4
20260507105347 63 208 1.0 8.0 0.00 0.00 0.00 55 1016.4
20260507104352 62 346 1.0 6.0 0.00 0.00 0.00 56 1016.4
20260507103328 62 359 1.0 5.0 0.00 0.00 0.00 57 1016.5
20260507102341 63 273 2.0 5.0 0.00 0.00 0.00 54 1016.5
20260507101348 62 307 1.0 5.0 0.00 0.00 0.00 57 1016.4
20260507100355 61 8 1.0 6.0 0.00 0.00 0.00 58 1016.4
20260507095342 61 350 1.0 7.0 0.00 0.00 0.00 57 1016.4
20260507094356 61 346 1.0 4.0 0.00 0.00 0.00 58 1016.4
20260507093329 60 358 0.0 3.0 0.00 0.00 0.00 59 1016.3
20260507092337 60 7 1.0 7.0 0.00 0.00 0.00 59 1016.2
20260507091352 60 7 2.0 6.0 0.00 0.00 0.00 61 1016.2
20260507090321 59 13 1.0 5.0 0.00 0.00 0.00 64 1016.2
20260507085331 59 9 1.0 4.0 0.00 0.00 0.00 65 1016.1
20260507084355 59 12 2.0 7.0 0.00 0.00 0.00 66 1016.1
20260507083339 59 344 2.0 4.0 0.00 0.00 0.00 67 1016.1
20260507082332 58 32 1.0 4.0 0.00 0.00 0.00 68 1016.2
20260507081320 58 84 1.0 3.0 0.00 0.00 0.00 70 1016.2
20260507080321 57 348 0.0 6.0 0.00 0.00 0.00 72 1016.1
20260507075332 56 11 1.0 3.0 0.00 0.00 0.00 74 1016.0
20260507074338 55 17 1.0 3.0 0.00 0.00 0.00 74 1015.9
20260507073411 54 3 0.0 3.0 0.00 0.00 0.00 76 1015.9
20260507072319 53 40 1.0 5.0 0.00 0.00 0.00 78 1015.9
20260507071414 53 355 1.0 5.0 0.00 0.00 0.00 81 1015.9
20260507070354 52 348 1.0 4.0 0.00 0.00 0.00 82 1015.9
20260507065345 51 302 2.0 6.0 0.00 0.00 0.00 84 1016.0
20260507064321 50 325 2.0 5.0 0.00 0.00 0.00 85 1015.9
20260507063355 49 42 1.0 3.0 0.00 0.00 0.00 87 1015.8
20260507062334 48 208 1.0 5.0 0.00 0.00 0.00 87 1015.8
20260507061341 48 22 1.0 6.0 0.00 0.00 0.00 88 1015.8
20260507060346 47 1 1.0 5.0 0.00 0.00 0.00 89 1015.8
20260507055351 47 208 1.0 5.0 0.00 0.00 0.00 89 1015.6
20260507054333 46 360 1.0 5.0 0.00 0.00 0.00 89 1015.5
20260507053401 46 355 1.0 4.0 0.00 0.00 0.00 90 1015.5
20260507052320 46 7 1.0 5.0 0.00 0.00 0.00 90 1015.4
20260507051322 45 22 1.0 3.0 0.00 0.00 0.00 90 1015.3
20260507050406 45 15 1.0 2.0 0.00 0.00 0.00 89 1015.2
20260507045351 45 9 0.0 2.0 0.00 0.00 0.00 89 1015.1
20260507044337 45 3 1.0 2.0 0.00 0.00 0.00 89 1015.0
20260507043326 45 9 1.0 2.0 0.00 0.00 0.00 89 1015.0
20260507042355 45 357 0.0 0.0 0.00 0.00 0.00 89 1014.9
20260507041325 45 9 0.0 0.0 0.00 0.00 0.00 89 1014.9
20260507040330 45 9 1.0 2.0 0.00 0.00 0.00 89 1014.7
20260507035324 45 5 0.0 2.0 0.00 0.00 0.00 89 1014.7
20260507034329 45 358 0.0 3.0 0.00 0.00 0.00 89 1014.6
20260507033324 46 14 1.0 3.0 0.00 0.00 0.00 89 1014.6
20260507032323 46 6 0.0 2.0 0.00 0.00 0.00 88 1014.6
20260507031350 46 9 0.0 1.0 0.00 0.00 0.00 88 1014.5
20260507030342 46 15 0.0 2.0 0.00 0.00 0.00 88 1014.4
20260507025351 46 17 0.0 2.0 0.00 0.00 0.00 88 1014.4
20260507024351 46 7 0.0 2.0 0.00 0.00 0.00 88 1014.3
20260507023317 46 348 1.0 3.0 0.00 0.00 0.00 88 1014.3
20260507022351 47 360 1.0 5.0 0.00 0.00 0.00 87 1014.3
20260507021335 47 351 0.0 3.0 0.00 0.00 0.00 87 1014.2
20260507020321 47 350 0.0 3.0 0.00 0.00 0.00 87 1014.2
20260507015412 47 2 1.0 3.0 0.00 0.00 0.00 86 1014.0
20260507014400 47 11 0.0 5.0 0.00 0.00 0.00 86 1014.0
20260507013333 48 5 0.0 3.0 0.00 0.00 0.00 85 1014.0
20260507012356 48 28 0.0 2.0 0.00 0.00 0.00 85 1014.0
20260507011331 48 34 0.0 4.0 0.00 0.00 0.00 85 1013.9
20260507010329 48 28 0.0 5.0 0.00 0.00 0.00 84 1013.9
20260507005358 49 311 1.0 3.0 0.00 0.00 0.00 84 1013.8
20260507004324 49 5 1.0 4.0 0.00 0.00 0.00 83 1013.9
20260507003330 49 5 1.0 3.0 0.00 0.00 0.00 83 1013.8